www.pogodaiklimat.ru
ПОГОДА в Фремонте
Время
(UTC), дата
08:55 12.11
08:56 12.11
09:15 12.11
09:16 12.11
09:35 12.11
09:36 12.11
09:55 12.11
10:15 12.11
10:35 12.11
10:36 12.11
10:55 12.11
11:15 12.11
11:35 12.11
11:55 12.11
12:15 12.11
12:35 12.11
12:55 12.11
13:15 12.11
13:16 12.11
13:35 12.11
13:36 12.11
13:55 12.11
14:15 12.11
14:35 12.11
14:36 12.11
14:55 12.11
15:15 12.11
15:35 12.11
15:55 12.11
16:15 12.11
16:35 12.11
16:36 12.11
16:55 12.11
16:56 12.11
17:15 12.11
17:35 12.11
17:55 12.11
17:56 12.11
18:15 12.11
18:16 12.11
18:35 12.11
18:36 12.11
18:55 12.11
19:15 12.11
19:35 12.11
19:55 12.11
20:15 12.11
20:16 12.11
Ветер
(напр.,м/с)
Видим. Явления Облачность Т
(С)
Тd
(С)
f
(%)
Тe
(С)
Тes
(С)
Комфортность P
(гПа)
Po
(гПа)
Тmin
(С)
Tmax
(С)
R
(мм)
R24
(мм)
S
(см)
С 6 16 км 10/10 1500 м -6.8 -10.0 78 -15 -15 996.4
СЗ 6 16 км 10/10 1500 м -6.8 -10.0 78 -15 -15 996.4
СЗ 6 16 км 10/10 1500 м -6.9 -9.9 79 -15 -15 996.7
СЗ 5 16 км 10/10 1500 м -6.9 -9.9 79 -15 -15 996.7
СЗ 5
{8}
16 км 10/10 1650 м -7.0 -9.8 80 -15 -15 996.7
СЗ 6
{8}
16 км 10/10 1650 м -7.0 -9.9 80 -16 -16 996.7
СЗ 6 16 км 10/10 1650 м -7.0 -10.0 79 -15 -15 996.7
СЗ 6 16 км 10/0 2100 м
[средняя]
-7.0 -10.0 79 -15 -15 997.0
СЗ 4 16 км 10/5 540 м
[средняя]
-7.1 -10.0 80 -14 -14 997.3
СЗ 4 16 км 10/5 540 м
[средняя]
-7.1 -10.0 80 -15 -15 997.3
СЗ 4 11 км слабый снег 10/10 540 м -7.3 -10.0 81 -14 -14 997.3 -7.3 -6.0
СЗ 5 8 км слабый снег 10/10 600 м -7.4 -10.0 82 -16 -16 997.7
СЗ 7 11 км 10/10 600 м -7.5 -10.6 78 -17 -17 997.7
СЗ 4
{8}
8 км мгла 8/8 570 м -7.6 -10.7 78 -15 -15 997.7
СЗ 5 16 км 5/5 570 м -8.1 -11.0 80 -16 -16 998.0
СЗ 5 16 км ясно -7.6 -10.9 77 -16 -16 998.3
СЗ 5 16 км ясно -7.1 -11.0 74 -15 -15 998.3
СЗ 5 16 км ясно -6.6 -10.7 73 -15 -14 998.7
СЗ 4 16 км ясно -6.6 -10.7 73 -14 -14 998.7
СЗ 4 16 км 5/5 570 м -6.1 -10.5 71 -13 -13 999.0
СЗ 5 16 км 8/8 570 м -6.1 -10.5 71 -14 -14 999.0
СЗ 4 16 км 8/8 630 м -6.4 -10.9 70 -14 -14 999.0
СЗ 6 16 км 10/10 750 м -5.8 -10.9 67 -14 -14 999.0
СЗ 6
{10}
16 км 10/10 810 м -5.8 -11.8 63 -14 -14 999.0
СЗ 5
{10}
16 км 10/10 810 м -5.8 -11.7 63 -13 -13 999.3
СЗ 5
{7}
16 км 10/10 750 м -5.7 -11.0 66 -13 -13 999.3
СЗ 4 16 км 8/8 750 м -5.6 -10.7 67 -13 -12 999.3
З 4 16 км 10/10 690 м -5.2 -10.3 67 -12 -12 999.3
З 6
{8}
16 км 10/10 600 м -5.0 -9.7 70 -13 -13 999.3
СЗ 6
{7}
16 км 10/10 660 м -5.4 -11.2 64 -13 -13 999.3
З 6
{8}
16 км 10/10 690 м -5.1 -10.3 67 -13 -13 999.3
СЗ 6
{8}
16 км 10/10 690 м -5.1 -10.4 66 -13 -13 999.3
СЗ 6 16 км 10/10 750 м -5.3 -11.5 62 -13 -13 999.3 -8.1 -4.6
СЗ 6 16 км 10/10 750 м -5.3 -11.4 62 -13 -13 999.3 -8.1 -4.6
С 6
{8}
16 км слабый снег 10/10 720 м -5.5 -10.4 68 -14 -14 999.3
СЗ 6
{9}
16 км 10/10 720 м -5.3 -11.6 61 -13 -13 999.3
СЗ 6 16 км 10/10 840 м -4.8 -11.9 58 -12 -12 999.3
СЗ 6 16 км 10/10 840 м -4.7 -11.9 57 -13 -13 999.3
СЗ 4 11 км 10/10 720 м -5.0 -12.5 56 -12 -12 999.3
СЗ 4 11 км 10/10 810 м -5.0 -12.2 57 -12 -12 999.3
СЗ 5 11 км слабый снег 10/10 810 м -5.5 -10.9 66 -13 -13 999.3
СЗ 5 11 км слабый снег 10/10 690 м -5.5 -11.0 65 -13 -13 999.3
СЗ 5
{7}
16 км 10/10 840 м -5.6 -11.9 61 -13 -13 999.0
СЗ 4 16 км 10/10 1020 м -5.5 -11.6 62 -12 -12 999.3
СЗ 4 11 км слабый снег 10/10 720 м -5.7 -12.0 61 -12 -12 999.3
СЗ 4 16 км 8/8 1170 м -6.3 -13.9 55 -13 -13 999.3
С 4 16 км 8/8 1170 м -6.1 -13.3 57 -12 -12 999.7
СЗ 4 16 км 8/8 1170 м -6.1 -13.3 57 -12 -12 999.7
Местоположение метеостанции Fremont Municipal Airport: широта 43.4393 долгота -85.9948 высота над уровнем моря 235 м.
В архиве по умолчанию представлена погода в Фремонте за последние 1-2 суток. Обновление информации о фактической погоде в базе происходит ежечасно! Архивные данные за месяц целиком и за предыдущие месяцы Вы можете получить, выбрав интересующий диапазон дат из раскрывающегося списка и нажав кнопку "Ввод!".
Внимание! Архив погоды МЕТАР в базе сайта по станциям, не включенным в климатический монитор, хранится не более 60 дней. Нет смысла пытаться выбрать более раннюю дату.
*Определитесь, кто Вы:
Внимание! Время в таблицах - всемирное. Для получения местного времени необходимо прибавить поправку, которая равна ч.
Смотрите также архив погоды в соседних городах и на ближайших метеорологических станциях:
Партнеры нашего сайта:      
Пояснения к столбцам:
  • Ветер - указаны скорость ветра в м/с - средняя за 10 мин, порывы в срок и между сроками (в фигурных скобках) и направление, откуда дует ветер: С - северный,
  • СВ - северо-восточный, В - восточный, ЮВ - юго-восточный, Ю - южный, ЮЗ - юго-западный, З - западный, СЗ - северо-западный.
  • Видимость - горизонтальная дальность видимости в метрах или километрах. При видимости от 1 до 10 км при отсутствии осадков обычно наблюдается дымка, при ухудшении видимости до 1 км и менее - туман. В сухую погоду видимость может ухудшаться дымом, пылью или мглою.
  • Явления - указаны атмосферные явления, наблюдавшиеся в срок или в последний час перед сроком; фигурными скобками обозначены явления, наблюдавшиеся между сроками (за 1-3 часа до срока); квадратными скобками обозначены град или гололедные отложения с указанием их диаметра в мм.
  • Облачность - указаны через наклонную черту общая и нижняя облачность в баллах и высота нижней границы облаков в метрах; квадратными скобками обозначены формы облаков: Ci - перистые, Cs - перисто-слоистые, Cc - перисто-кучевые, Ac - высококучевые, As - высокослоистые, Sc - слоисто-кучевые, Ns - слоисто-дождевые, Cu - кучевые, Cb - кучево-дождевые. Подробнее классификацию облаков см. в Атласе облаков (PDF).
  • T - Температура воздуха - температура, измеренная на высоте 2 м над землей.
  • Td - Температура точки росы - температура, при понижении до которой содержащийся в воздухе водяной пар достигнет насыщения.
  • f - Относительная влажность воздуха - влажноcть воздуха, измеренная на высоте 2 м над землей.
  • Te - Эффективная температура - температура, которую ощущает одетый по сезону человек в тени. Характеристика душности погоды. При расчете учитывается влияние влажности воздуха и скорости ветра на теплоощущения человека.
  • Tes - Эффективная температура на солнце - температура, которую ощущает человек, с поправкой на солнечный нагрев. Характеристика знойности погоды. Зависит от высоты солнца над горизонтом, облачности и скорости ветра. Ночью, в пасмурную погоду, а также при ветре 12 м/с и более поправка равна нулю.
  • P - Атмосферное давление - приведенное к уровню моря атмосферное давление.
  • Po - Атмосферное давление - измеренное на уровне метеостанции атмосферное давление.
  • Tmin - Минимальная температура - минимум температуры воздуха на высоте 2 м над землей.
  • Tmax - Максимальная температура - максимум температуры воздуха на высоте 2 м над землей.
  • R - Количество осадков - Количество выпавших осадков за период времени, мм. При наведении курсора мыши на число - период времени, за который выпало указанное количество осадков.
  • R24 - Количество осадков - Количество выпавших осадков за 24 часа, мм.
  • S - Снежный покров - Высота снежного покрова, см. При наведении курсора мыши на число - состояние снежного покрова и степень покрытия местности в баллах.